Time,TemperatureF,DewpointF,PressureIn,WindDirection,WindDirectionDegrees,WindSpeedMPH,WindSpeedGustMPH,Humidity,HourlyPrecipIn,Conditions,Clouds,dailyrainin,SoftwareType,DateUTC
2013-07-24 00:11:00,83.0,-99.9,30.07,WNW,288,10.0,13.0,-999,-99.99,,,-99.99,,2013-07-24 04:11:00,
2013-07-24 00:22:00,83.0,-99.9,30.07,WNW,295,9.0,11.0,-999,-99.99,,,-99.99,,2013-07-24 04:22:00,
2013-07-24 00:44:00,83.0,-99.9,30.07,West,277,7.0,10.0,-999,-99.99,,,-99.99,,2013-07-24 04:44:00,
2013-07-24 01:11:00,83.0,-99.9,30.06,West,265,8.0,10.0,-999,-99.99,,,-99.99,,2013-07-24 05:11:00,
2013-07-24 01:33:00,83.0,-99.9,30.05,West,266,8.0,11.0,-999,-99.99,,,-99.99,,2013-07-24 05:33:00,
2013-07-24 02:01:00,83.0,-99.9,30.04,WNW,297,7.0,10.0,-999,-99.99,,,-99.99,,2013-07-24 06:01:00,
2013-07-24 02:53:00,82.0,-99.9,30.02,West,280,8.0,10.0,-999,-99.99,,,-99.99,,2013-07-24 06:53:00,
2013-07-24 03:02:00,82.0,-99.9,30.01,West,267,8.0,11.0,-999,-99.99,,,-99.99,,2013-07-24 07:02:00,
2013-07-24 03:12:00,82.0,-99.9,30.01,WNW,282,8.0,11.0,-999,-99.99,,,-99.99,,2013-07-24 07:12:00,
2013-07-24 03:32:00,82.0,-99.9,30.01,WNW,299,9.0,10.0,-999,-99.99,,,-99.99,,2013-07-24 07:32:00,
2013-07-24 03:43:00,82.0,-99.9,30.01,WNW,302,9.0,11.0,-999,-99.99,,,-99.99,,2013-07-24 07:43:00,
2013-07-24 03:53:00,82.0,-99.9,30.00,WNW,286,7.0,10.0,-999,-99.99,,,-99.99,,2013-07-24 07:53:00,
2013-07-24 04:02:00,82.0,-99.9,30.00,WNW,286,7.0,9.0,-999,-99.99,,,-99.99,,2013-07-24 08:02:00,
2013-07-24 04:12:00,82.0,-99.9,30.00,West,267,6.0,10.0,-999,-99.99,,,-99.99,,2013-07-24 08:12:00,
2013-07-24 04:32:00,82.0,-99.9,30.00,WNW,295,9.0,11.0,-999,-99.99,,,-99.99,,2013-07-24 08:32:00,
2013-07-24 04:43:00,82.0,-99.9,29.99,WNW,284,9.0,11.0,-999,-99.99,,,-99.99,,2013-07-24 08:43:00,
2013-07-24 04:52:00,82.0,-99.9,29.99,West,276,8.0,10.0,-999,-99.99,,,-99.99,,2013-07-24 08:52:00,
2013-07-24 05:02:00,82.0,-99.9,29.99,WNW,285,8.0,11.0,-999,-99.99,,,-99.99,,2013-07-24 09:02:00,
2013-07-24 05:12:00,82.0,-99.9,29.99,WNW,285,8.0,11.0,-999,-99.99,,,-99.99,,2013-07-24 09:12:00,
2013-07-24 05:43:00,82.0,-99.9,29.99,WNW,301,8.0,10.0,-999,-99.99,,,-99.99,,2013-07-24 09:43:00,
2013-07-24 06:02:00,82.0,-99.9,29.99,WNW,284,4.0,9.0,-999,-99.99,,,-99.99,,2013-07-24 10:02:00,
2013-07-24 06:22:00,82.0,-99.9,30.00,West,271,5.0,9.0,-999,-99.99,,,-99.99,,2013-07-24 10:22:00,
2013-07-24 06:33:00,82.0,-99.9,30.00,WNW,285,6.0,9.0,-999,-99.99,,,-99.99,,2013-07-24 10:33:00,
2013-07-24 06:43:00,82.0,-99.9,30.00,WNW,286,7.0,9.0,-999,-99.99,,,-99.99,,2013-07-24 10:43:00,
2013-07-24 07:44:00,82.0,-99.9,30.01,WSW,258,6.0,9.0,-999,-99.99,,,-99.99,,2013-07-24 11:44:00,
2013-07-24 08:02:00,82.0,-99.9,30.01,WSW,251,5.0,8.0,-999,-99.99,,,-99.99,,2013-07-24 12:02:00,
2013-07-24 08:12:00,82.0,-99.9,30.00,WSW,253,6.0,10.0,-999,-99.99,,,-99.99,,2013-07-24 12:12:00,
2013-07-24 08:22:00,82.0,-99.9,30.00,West,264,6.0,9.0,-999,-99.99,,,-99.99,,2013-07-24 12:22:00,
2013-07-24 08:42:00,83.0,-99.9,30.01,WSW,253,7.0,10.0,-999,-99.99,,,-99.99,,2013-07-24 12:42:00,
2013-07-24 09:12:00,82.0,-99.9,30.02,WSW,258,9.0,11.0,-999,-99.99,,,-99.99,,2013-07-24 13:12:00,
2013-07-24 09:22:00,83.0,-99.9,30.03,West,276,8.0,11.0,-999,-99.99,,,-99.99,,2013-07-24 13:22:00,
2013-07-24 09:32:00,83.0,-99.9,30.03,WSW,250,9.0,11.0,-999,-99.99,,,-99.99,,2013-07-24 13:32:00,
2013-07-24 09:43:00,83.0,-99.9,30.03,WSW,256,9.0,11.0,-999,-99.99,,,-99.99,,2013-07-24 13:43:00,
2013-07-24 10:02:00,83.0,-99.9,30.04,WSW,258,9.0,11.0,-999,-99.99,,,-99.99,,2013-07-24 14:02:00,
2013-07-24 10:12:00,83.0,-99.9,30.04,West,268,10.0,12.0,-999,-99.99,,,-99.99,,2013-07-24 14:12:00,
2013-07-24 10:32:00,83.0,-99.9,30.04,WSW,257,9.0,12.0,-999,-99.99,,,-99.99,,2013-07-24 14:32:00,
2013-07-24 10:43:00,84.0,-99.9,30.04,West,259,9.0,11.0,-999,-99.99,,,-99.99,,2013-07-24 14:43:00,
2013-07-24 10:55:00,85.0,-99.9,30.05,West,274,6.0,11.0,-999,-99.99,,,-99.99,,2013-07-24 14:55:00,
2013-07-24 11:03:00,84.0,-99.9,30.05,West,267,9.0,12.0,-999,-99.99,,,-99.99,,2013-07-24 15:03:00,
2013-07-24 11:12:00,84.0,-99.9,30.05,West,262,9.0,11.0,-999,-99.99,,,-99.99,,2013-07-24 15:12:00,
2013-07-24 11:33:00,83.0,-99.9,30.05,West,278,10.0,13.0,-999,-99.99,,,-99.99,,2013-07-24 15:33:00,
2013-07-24 11:43:00,83.0,-99.9,30.05,WNW,292,11.0,13.0,-999,-99.99,,,-99.99,,2013-07-24 15:43:00,
2013-07-24 11:53:00,83.0,-99.9,30.05,WNW,284,9.0,12.0,-999,-99.99,,,-99.99,,2013-07-24 15:53:00,
2013-07-24 12:02:00,83.0,-99.9,30.05,WNW,291,10.0,13.0,-999,-99.99,,,-99.99,,2013-07-24 16:02:00,
2013-07-24 12:12:00,84.0,-99.9,30.05,West,268,8.0,13.0,-999,-99.99,,,-99.99,,2013-07-24 16:12:00,
2013-07-24 12:23:00,83.0,-99.9,30.05,WNW,292,9.0,11.0,-999,-99.99,,,-99.99,,2013-07-24 16:23:00,
2013-07-24 12:33:00,83.0,-99.9,30.05,WNW,286,9.0,14.0,-999,-99.99,,,-99.99,,2013-07-24 16:33:00,
2013-07-24 12:43:00,83.0,-99.9,30.05,WNW,288,10.0,12.0,-999,-99.99,,,-99.99,,2013-07-24 16:43:00,
2013-07-24 12:53:00,83.0,-99.9,30.05,WNW,296,12.0,14.0,-999,-99.99,,,-99.99,,2013-07-24 16:53:00,
2013-07-24 13:03:00,83.0,-99.9,30.05,WNW,284,11.0,15.0,-999,-99.99,,,-99.99,,2013-07-24 17:03:00,
2013-07-24 13:12:00,84.0,-99.9,30.05,West,275,10.0,15.0,-999,-99.99,,,-99.99,,2013-07-24 17:12:00,
2013-07-24 13:33:00,83.0,-99.9,30.05,WNW,296,12.0,15.0,-999,-99.99,,,-99.99,,2013-07-24 17:33:00,
2013-07-24 13:43:00,84.0,-99.9,30.06,West,281,12.0,17.0,-999,-99.99,,,-99.99,,2013-07-24 17:43:00,
2013-07-24 13:53:00,84.0,-99.9,30.05,West,279,12.0,16.0,-999,-99.99,,,-99.99,,2013-07-24 17:53:00,
2013-07-24 14:03:00,83.0,-99.9,30.05,WNW,293,11.0,14.0,-999,-99.99,,,-99.99,,2013-07-24 18:03:00,
2013-07-24 14:12:00,84.0,-99.9,30.04,WNW,286,11.0,13.0,-999,-99.99,,,-99.99,,2013-07-24 18:12:00,
2013-07-24 14:33:00,83.0,-99.9,30.04,WNW,299,11.0,13.0,-999,-99.99,,,-99.99,,2013-07-24 18:33:00,
2013-07-24 14:43:00,83.0,-99.9,30.03,WNW,291,12.0,14.0,-999,-99.99,,,-99.99,,2013-07-24 18:43:00,
2013-07-24 14:52:00,83.0,-99.9,30.03,WNW,291,12.0,14.0,-999,-99.99,,,-99.99,,2013-07-24 18:52:00,
2013-07-24 15:22:00,84.0,-99.9,30.02,WNW,286,13.0,15.0,-999,-99.99,,,-99.99,,2013-07-24 19:22:00,
2013-07-24 15:43:00,83.0,-99.9,30.01,WNW,302,13.0,15.0,-999,-99.99,,,-99.99,,2013-07-24 19:43:00,
2013-07-24 15:53:00,84.0,-99.9,30.01,WNW,286,11.0,14.0,-999,-99.99,,,-99.99,,2013-07-24 19:53:00,
2013-07-24 16:02:00,84.0,-99.9,30.01,WNW,291,11.0,13.0,-999,-99.99,,,-99.99,,2013-07-24 20:02:00,
2013-07-24 16:13:00,83.0,-99.9,30.01,WNW,294,10.0,13.0,-999,-99.99,,,-99.99,,2013-07-24 20:13:00,
2013-07-24 16:23:00,84.0,-99.9,30.00,West,277,10.0,13.0,-999,-99.99,,,-99.99,,2013-07-24 20:23:00,
2013-07-24 16:33:00,84.0,-99.9,30.00,WNW,294,11.0,14.0,-999,-99.99,,,-99.99,,2013-07-24 20:33:00,
2013-07-24 16:43:00,84.0,-99.9,30.00,WNW,296,11.0,14.0,-999,-99.99,,,-99.99,,2013-07-24 20:43:00,
2013-07-24 16:53:00,84.0,-99.9,29.99,WNW,293,11.0,13.0,-999,-99.99,,,-99.99,,2013-07-24 20:53:00,
2013-07-24 17:03:00,84.0,-99.9,30.00,WNW,296,12.0,14.0,-999,-99.99,,,-99.99,,2013-07-24 21:03:00,
2013-07-24 17:12:00,83.0,-99.9,29.99,WNW,299,11.0,13.0,-999,-99.99,,,-99.99,,2013-07-24 21:12:00,
2013-07-24 18:02:00,84.0,-99.9,29.98,WNW,283,10.0,13.0,-999,-99.99,,,-99.99,,2013-07-24 22:02:00,
2013-07-24 19:33:00,84.0,-99.9,29.98,West,277,10.0,13.0,-999,-99.99,,,-99.99,,2013-07-24 23:33:00,
2013-07-24 19:43:00,84.0,-99.9,29.99,West,278,9.0,13.0,-999,-99.99,,,-99.99,,2013-07-24 23:43:00,
2013-07-24 19:52:00,83.0,-99.9,29.98,West,280,11.0,15.0,-999,-99.99,,,-99.99,,2013-07-24 23:52:00,
2013-07-24 20:02:00,83.0,-99.9,29.98,West,280,11.0,15.0,-999,-99.99,,,-99.99,,2013-07-25 00:02:00,
2013-07-24 20:33:00,83.0,-99.9,29.99,WNW,291,11.0,16.0,-999,-99.99,,,-99.99,,2013-07-25 00:33:00,
2013-07-24 20:43:00,83.0,-99.9,30.00,West,280,12.0,16.0,-999,-99.99,,,-99.99,,2013-07-25 00:43:00,
2013-07-24 21:03:00,83.0,-99.9,30.00,West,277,10.0,14.0,-999,-99.99,,,-99.99,,2013-07-25 01:03:00,
2013-07-24 21:12:00,83.0,-99.9,30.00,WNW,289,11.0,14.0,-999,-99.99,,,-99.99,,2013-07-25 01:12:00,
2013-07-24 21:32:00,83.0,-99.9,30.01,WNW,287,11.0,14.0,-999,-99.99,,,-99.99,,2013-07-25 01:32:00,
2013-07-24 21:43:00,83.0,-99.9,30.01,WNW,292,12.0,15.0,-999,-99.99,,,-99.99,,2013-07-25 01:43:00,
2013-07-24 22:12:00,83.0,-99.9,30.01,WNW,290,12.0,13.0,-999,-99.99,,,-99.99,,2013-07-25 02:12:00,
2013-07-24 22:22:00,83.0,-99.9,30.01,WNW,294,11.0,15.0,-999,-99.99,,,-99.99,,2013-07-25 02:22:00,
2013-07-24 22:43:00,83.0,-99.9,30.01,WNW,285,12.0,14.0,-999,-99.99,,,-99.99,,2013-07-25 02:43:00,
2013-07-24 22:53:00,83.0,-99.9,30.01,WNW,298,11.0,13.0,-999,-99.99,,,-99.99,,2013-07-25 02:53:00,
2013-07-24 23:02:00,83.0,-99.9,30.01,WNW,295,11.0,13.0,-999,-99.99,,,-99.99,,2013-07-25 03:02:00,
2013-07-24 23:16:00,83.0,-99.9,30.01,WNW,300,12.0,13.0,-999,-99.99,,,-99.99,,2013-07-25 03:16:00,
2013-07-24 23:45:00,83.0,-99.9,30.01,WNW,291,10.0,12.0,-999,-99.99,,,-99.99,,2013-07-25 03:45:00,